Time,TemperatureF,DewpointF,PressureIn,WindDirection,WindDirectionDegrees,WindSpeedMPH,WindSpeedGustMPH,Humidity,HourlyPrecipIn,Conditions,Clouds,dailyrainin,SoftwareType,DateUTC
2013-01-23 00:00:00,17.0,-99.9,-100.00,SSE,155,7.0,12.0,-999,-99.99,,,-99.99,,2013-01-23 06:00:00,
2013-01-23 00:53:00,17.0,-99.9,-100.00,SSE,155,7.0,12.0,-999,-99.99,,,-99.99,,2013-01-23 06:53:00,
2013-01-23 01:00:00,17.0,-99.9,-100.00,SE,127,8.0,10.0,-999,-99.99,,,-99.99,,2013-01-23 07:00:00,
2013-01-23 01:33:00,17.0,-99.9,-100.00,SE,127,8.0,10.0,-999,-99.99,,,-99.99,,2013-01-23 07:33:00,
2013-01-23 01:43:00,17.0,-99.9,-100.00,SE,127,8.0,10.0,-999,-99.99,,,-99.99,,2013-01-23 07:43:00,
2013-01-23 01:53:00,17.0,-99.9,-100.00,SE,127,8.0,10.0,-999,-99.99,,,-99.99,,2013-01-23 07:53:00,
2013-01-23 02:00:00,16.0,-99.9,-100.00,SSE,157,9.0,13.0,-999,-99.99,,,-99.99,,2013-01-23 08:00:00,
2013-01-23 02:33:00,16.0,-99.9,-100.00,SSE,157,9.0,13.0,-999,-99.99,,,-99.99,,2013-01-23 08:33:00,
2013-01-23 02:43:00,16.0,-99.9,-100.00,SSE,157,9.0,13.0,-999,-99.99,,,-99.99,,2013-01-23 08:43:00,
2013-01-23 02:53:00,16.0,-99.9,-100.00,SSE,157,9.0,13.0,-999,-99.99,,,-99.99,,2013-01-23 08:53:00,
2013-01-23 03:00:00,15.0,-99.9,-100.00,SSE,150,3.0,12.0,-999,-99.99,,,-99.99,,2013-01-23 09:00:00,
2013-01-23 03:33:00,15.0,-99.9,-100.00,SSE,150,3.0,12.0,-999,-99.99,,,-99.99,,2013-01-23 09:33:00,
2013-01-23 03:44:00,15.0,-99.9,-100.00,SSE,150,3.0,12.0,-999,-99.99,,,-99.99,,2013-01-23 09:44:00,
2013-01-23 03:53:00,15.0,-99.9,-100.00,SSE,150,3.0,12.0,-999,-99.99,,,-99.99,,2013-01-23 09:53:00,
2013-01-23 04:00:00,15.0,-99.9,-100.00,ESE,115,4.0,10.0,-999,-99.99,,,-99.99,,2013-01-23 10:00:00,
2013-01-23 04:33:00,15.0,-99.9,-100.00,ESE,115,4.0,10.0,-999,-99.99,,,-99.99,,2013-01-23 10:33:00,
2013-01-23 04:43:00,15.0,-99.9,-100.00,ESE,115,4.0,10.0,-999,-99.99,,,-99.99,,2013-01-23 10:43:00,
2013-01-23 04:53:00,15.0,-99.9,-100.00,ESE,115,4.0,10.0,-999,-99.99,,,-99.99,,2013-01-23 10:53:00,
2013-01-23 05:00:00,13.0,-99.9,-100.00,ESE,120,8.0,11.0,-999,-99.99,,,-99.99,,2013-01-23 11:00:00,
2013-01-23 05:34:00,13.0,-99.9,-100.00,ESE,120,8.0,11.0,-999,-99.99,,,-99.99,,2013-01-23 11:34:00,
2013-01-23 05:43:00,13.0,-99.9,-100.00,ESE,120,8.0,11.0,-999,-99.99,,,-99.99,,2013-01-23 11:43:00,
2013-01-23 05:53:00,13.0,-99.9,-100.00,ESE,120,8.0,11.0,-999,-99.99,,,-99.99,,2013-01-23 11:53:00,
2013-01-23 06:00:00,12.0,-99.9,-100.00,SE,130,5.0,9.0,-999,-99.99,,,-99.99,,2013-01-23 12:00:00,
2013-01-23 06:33:00,12.0,-99.9,-100.00,SE,130,5.0,9.0,-999,-99.99,,,-99.99,,2013-01-23 12:33:00,
2013-01-23 06:43:00,12.0,-99.9,-100.00,SE,130,5.0,9.0,-999,-99.99,,,-99.99,,2013-01-23 12:43:00,
2013-01-23 06:53:00,12.0,-99.9,-100.00,SE,130,5.0,9.0,-999,-99.99,,,-99.99,,2013-01-23 12:53:00,
2013-01-23 07:00:00,12.0,-99.9,-100.00,SE,132,2.0,5.0,-999,-99.99,,,-99.99,,2013-01-23 13:00:00,
2013-01-23 07:53:00,12.0,-99.9,-100.00,SE,132,2.0,5.0,-999,-99.99,,,-99.99,,2013-01-23 13:53:00,
2013-01-23 08:00:00,12.0,-99.9,-100.00,SSE,164,0.0,2.0,-999,-99.99,,,-99.99,,2013-01-23 14:00:00,
2013-01-23 08:33:00,12.0,-99.9,-100.00,SSE,164,0.0,2.0,-999,-99.99,,,-99.99,,2013-01-23 14:33:00,
2013-01-23 08:43:00,12.0,-99.9,-100.00,SSE,164,0.0,2.0,-999,-99.99,,,-99.99,,2013-01-23 14:43:00,
2013-01-23 08:53:00,12.0,-99.9,-100.00,SSE,164,0.0,2.0,-999,-99.99,,,-99.99,,2013-01-23 14:53:00,
2013-01-23 09:00:00,16.0,-99.9,-100.00,South,177,4.0,4.0,-999,-99.99,,,-99.99,,2013-01-23 15:00:00,
2013-01-23 09:33:00,16.0,-99.9,-100.00,South,177,4.0,4.0,-999,-99.99,,,-99.99,,2013-01-23 15:33:00,
2013-01-23 09:44:00,16.0,-99.9,-100.00,South,177,4.0,4.0,-999,-99.99,,,-99.99,,2013-01-23 15:44:00,
2013-01-23 09:53:00,16.0,-99.9,-100.00,South,177,4.0,4.0,-999,-99.99,,,-99.99,,2013-01-23 15:53:00,
2013-01-23 10:00:00,21.0,-99.9,-100.00,SW,221,5.0,11.0,-999,-99.99,,,-99.99,,2013-01-23 16:00:00,
2013-01-23 10:33:00,21.0,-99.9,-100.00,SW,221,5.0,11.0,-999,-99.99,,,-99.99,,2013-01-23 16:33:00,
2013-01-23 10:43:00,21.0,-99.9,-100.00,SW,221,5.0,11.0,-999,-99.99,,,-99.99,,2013-01-23 16:43:00,
2013-01-23 10:53:00,21.0,-99.9,-100.00,SW,221,5.0,11.0,-999,-99.99,,,-99.99,,2013-01-23 16:53:00,
2013-01-23 11:00:00,25.0,-99.9,-100.00,South,191,5.0,15.0,-999,-99.99,,,-99.99,,2013-01-23 17:00:00,
2013-01-23 11:34:00,25.0,-99.9,-100.00,South,191,5.0,15.0,-999,-99.99,,,-99.99,,2013-01-23 17:34:00,
2013-01-23 11:43:00,25.0,-99.9,-100.00,South,191,5.0,15.0,-999,-99.99,,,-99.99,,2013-01-23 17:43:00,
2013-01-23 11:53:00,25.0,-99.9,-100.00,South,191,5.0,15.0,-999,-99.99,,,-99.99,,2013-01-23 17:53:00,
2013-01-23 12:00:00,26.0,-99.9,-100.00,WSW,257,6.0,16.0,-999,-99.99,,,-99.99,,2013-01-23 18:00:00,
2013-01-23 12:44:00,26.0,-99.9,-100.00,WSW,257,6.0,16.0,-999,-99.99,,,-99.99,,2013-01-23 18:44:00,
2013-01-23 12:53:00,26.0,-99.9,-100.00,WSW,257,6.0,16.0,-999,-99.99,,,-99.99,,2013-01-23 18:53:00,
2013-01-23 13:00:00,28.0,-99.9,-100.00,NE,41,0.0,19.0,-999,-99.99,,,-99.99,,2013-01-23 19:00:00,
2013-01-23 13:33:00,28.0,-99.9,-100.00,NE,41,0.0,19.0,-999,-99.99,,,-99.99,,2013-01-23 19:33:00,
2013-01-23 13:43:00,28.0,-99.9,-100.00,NE,41,0.0,19.0,-999,-99.99,,,-99.99,,2013-01-23 19:43:00,
2013-01-23 13:53:00,28.0,-99.9,-100.00,NE,41,0.0,19.0,-999,-99.99,,,-99.99,,2013-01-23 19:53:00,
2013-01-23 14:00:00,27.0,-99.9,-100.00,WNW,283,16.0,26.0,-999,-99.99,,,-99.99,,2013-01-23 20:00:00,
2013-01-23 14:54:00,27.0,-99.9,-100.00,WNW,283,16.0,26.0,-999,-99.99,,,-99.99,,2013-01-23 20:54:00,
2013-01-23 15:00:00,26.0,-99.9,-100.00,WNW,293,18.0,19.0,-999,-99.99,,,-99.99,,2013-01-23 21:00:00,
2013-01-23 15:43:00,26.0,-99.9,-100.00,WNW,293,18.0,19.0,-999,-99.99,,,-99.99,,2013-01-23 21:43:00,
2013-01-23 15:53:00,26.0,-99.9,-100.00,WNW,293,18.0,19.0,-999,-99.99,,,-99.99,,2013-01-23 21:53:00,
2013-01-23 16:00:00,25.0,-99.9,-100.00,West,279,17.0,21.0,-999,-99.99,,,-99.99,,2013-01-23 22:00:00,
2013-01-23 16:33:00,25.0,-99.9,-100.00,West,279,17.0,21.0,-999,-99.99,,,-99.99,,2013-01-23 22:33:00,
2013-01-23 16:43:00,25.0,-99.9,-100.00,West,279,17.0,21.0,-999,-99.99,,,-99.99,,2013-01-23 22:43:00,
2013-01-23 16:53:00,25.0,-99.9,-100.00,West,279,17.0,21.0,-999,-99.99,,,-99.99,,2013-01-23 22:53:00,
2013-01-23 17:00:00,20.0,-99.9,-100.00,WSW,255,6.0,25.0,-999,-99.99,,,-99.99,,2013-01-23 23:00:00,
2013-01-23 17:33:00,20.0,-99.9,-100.00,WSW,255,6.0,25.0,-999,-99.99,,,-99.99,,2013-01-23 23:33:00,
2013-01-23 17:43:00,20.0,-99.9,-100.00,WSW,255,6.0,25.0,-999,-99.99,,,-99.99,,2013-01-23 23:43:00,
2013-01-23 17:53:00,20.0,-99.9,-100.00,WSW,255,6.0,25.0,-999,-99.99,,,-99.99,,2013-01-23 23:53:00,
2013-01-23 18:00:00,17.0,-99.9,-100.00,WSW,255,18.0,29.0,-999,-99.99,,,-99.99,,2013-01-24 00:00:00,
2013-01-23 18:33:00,17.0,-99.9,-100.00,WSW,255,18.0,29.0,-999,-99.99,,,-99.99,,2013-01-24 00:33:00,
2013-01-23 18:43:00,17.0,-99.9,-100.00,WSW,255,18.0,29.0,-999,-99.99,,,-99.99,,2013-01-24 00:43:00,
2013-01-23 18:53:00,17.0,-99.9,-100.00,WSW,255,18.0,29.0,-999,-99.99,,,-99.99,,2013-01-24 00:53:00,
2013-01-23 19:00:00,12.0,-99.9,-100.00,NNE,30,0.0,10.0,-999,-99.99,,,-99.99,,2013-01-24 01:00:00,
2013-01-23 19:33:00,12.0,-99.9,-100.00,NNE,30,0.0,10.0,-999,-99.99,,,-99.99,,2013-01-24 01:33:00,
2013-01-23 19:43:00,12.0,-99.9,-100.00,NNE,30,0.0,10.0,-999,-99.99,,,-99.99,,2013-01-24 01:43:00,
2013-01-23 19:53:00,12.0,-99.9,-100.00,NNE,30,0.0,10.0,-999,-99.99,,,-99.99,,2013-01-24 01:53:00,
2013-01-23 20:00:00,10.0,-99.9,-100.00,West,262,1.0,19.0,-999,-99.99,,,-99.99,,2013-01-24 02:00:00,
2013-01-23 20:33:00,10.0,-99.9,-100.00,West,262,1.0,19.0,-999,-99.99,,,-99.99,,2013-01-24 02:33:00,
2013-01-23 20:43:00,10.0,-99.9,-100.00,West,262,1.0,19.0,-999,-99.99,,,-99.99,,2013-01-24 02:43:00,
2013-01-23 20:53:00,10.0,-99.9,-100.00,West,262,1.0,19.0,-999,-99.99,,,-99.99,,2013-01-24 02:53:00,
2013-01-23 21:00:00,6.0,-99.9,-100.00,NW,310,16.0,27.0,-999,-99.99,,,-99.99,,2013-01-24 03:00:00,
2013-01-23 21:33:00,6.0,-99.9,-100.00,NW,310,16.0,27.0,-999,-99.99,,,-99.99,,2013-01-24 03:33:00,
2013-01-23 21:43:00,6.0,-99.9,-100.00,NW,310,16.0,27.0,-999,-99.99,,,-99.99,,2013-01-24 03:43:00,
2013-01-23 21:53:00,6.0,-99.9,-100.00,NW,310,16.0,27.0,-999,-99.99,,,-99.99,,2013-01-24 03:53:00,
2013-01-23 22:00:00,5.0,-99.9,-100.00,NW,316,12.0,15.0,-999,-99.99,,,-99.99,,2013-01-24 04:00:00,
2013-01-23 22:33:00,5.0,-99.9,-100.00,NW,316,12.0,15.0,-999,-99.99,,,-99.99,,2013-01-24 04:33:00,
2013-01-23 22:43:00,5.0,-99.9,-100.00,NW,316,12.0,15.0,-999,-99.99,,,-99.99,,2013-01-24 04:43:00,
2013-01-23 22:53:00,5.0,-99.9,-100.00,NW,316,12.0,15.0,-999,-99.99,,,-99.99,,2013-01-24 04:53:00,
2013-01-23 23:00:00,4.0,-99.9,-100.00,ENE,65,0.0,8.0,-999,-99.99,,,-99.99,,2013-01-24 05:00:00,
2013-01-23 23:53:00,4.0,-99.9,-100.00,ENE,65,0.0,8.0,-999,-99.99,,,-99.99,,2013-01-24 05:53:00,